DW4776 Weather Reports


Display with metric or nautical units.
time (UTC)temp
F
wind
direction
speed
MPH
gust
MPH
rain 1hr
in
rain 24hr
in
rain mn
in
humidity
%
barometer
mb
20260502231539 63 50 2.0 6.0 0.00 0.00 0.00 36 1016.8
20260502230034 63 67 3.0 6.0 0.00 0.00 0.00 37 1017.0
20260502224537 63 12 4.0 6.0 0.00 0.00 0.00 36 1017.2
20260502223040 63 353 3.0 12.0 0.00 0.00 0.00 36 1017.4
20260502221534 63 23 3.0 12.0 0.00 0.00 0.00 37 1017.6
20260502220039 63 25 3.0 10.0 0.00 0.00 0.00 36 1017.9
20260502214538 62 343 5.0 9.0 0.00 0.00 0.00 37 1018.1
20260502213037 63 23 2.0 3.0 0.00 0.00 0.00 36 1018.2
20260502211543 62 218 3.0 8.0 0.00 0.00 0.00 37 1018.3
20260502210040 62 143 1.0 5.0 0.00 0.00 0.00 38 1018.6
20260502204536 62 83 1.0 11.0 0.00 0.00 0.00 39 1018.6
20260502203039 62 45 7.0 13.0 0.00 0.00 0.00 39 1018.7
20260502201538 62 56 5.0 11.0 0.00 0.00 0.00 39 1018.7
20260502200038 61 351 5.0 11.0 0.00 0.00 0.00 40 1019.0
20260502194538 60 40 6.0 14.0 0.00 0.00 0.00 42 1019.2
20260502193041 59 66 8.0 14.0 0.00 0.00 0.00 45 1019.4
20260502191536 58 45 10.0 17.0 0.00 0.00 0.00 44 1019.5
20260502190041 58 25 8.0 14.0 0.00 0.00 0.00 44 1019.6
20260502184549 58 4 7.0 13.0 0.00 0.00 0.00 44 1019.6
20260502183050 58 357 8.0 15.0 0.00 0.00 0.00 44 1019.7
20260502181542 58 2 12.0 16.0 0.00 0.00 0.00 44 1019.8
20260502163046 59 356 11.0 19.0 0.00 0.00 0.00 41 1019.7
20260502161542 59 10 13.0 19.0 0.00 0.00 0.00 41 1019.7
20260502151543 58 45 14.0 19.0 0.00 0.00 0.00 44 1019.6
20260502123040 48 21 7.0 11.0 0.00 0.00 0.00 55 1018.6
20260502121537 48 4 9.0 13.0 0.00 0.00 0.00 54 1018.7
20260502114544 48 9 10.0 15.0 0.00 0.00 0.00 53 1018.4
20260502113041 49 20 11.0 16.0 0.00 0.00 0.00 52 1018.0
20260502111537 50 29 13.0 20.0 0.00 0.00 0.00 51 1018.0
20260502110039 50 35 13.0 19.0 0.00 0.00 0.00 51 1017.6
20260502104547 50 25 13.0 20.0 0.00 0.00 0.00 49 1017.3
20260502103039 50 36 13.0 20.0 0.00 0.00 0.00 48 1017.0
20260502101607 51 16 14.0 18.0 0.00 0.00 0.00 48 1016.8
20260502070053 55 50 3.0 8.0 0.00 0.00 0.00 32 1015.4
20260502064539 58 29 5.0 10.0 0.00 0.00 0.00 29 1015.3
20260502063039 57 33 6.0 11.0 0.00 0.00 0.00 30 1015.4
20260502061536 57 12 7.0 10.0 0.00 0.00 0.00 30 1015.4
20260502060038 57 358 8.0 12.0 0.00 0.00 0.00 30 1015.3
20260502054541 54 351 4.0 11.0 0.00 0.00 0.00 33 1015.3
20260502053037 56 303 7.0 11.0 0.00 0.00 0.00 33 1015.2
20260502051548 54 325 7.0 11.0 0.00 0.00 0.00 34 1015.3
20260502050042 54 326 9.0 11.0 0.00 0.00 0.00 34 1015.2
20260502044538 56 328 9.0 12.0 0.00 0.00 0.00 33 1015.1
20260502043035 58 325 7.0 14.0 0.00 0.00 0.00 30 1015.0
20260502041611 56 293 11.0 14.0 0.00 0.00 0.00 31 1015.2
20260502040046 58 308 9.0 11.0 0.00 0.00 0.00 27 1015.0
20260502034537 58 307 9.0 11.0 0.00 0.00 0.00 27 1015.0
20260502033041 59 314 8.0 11.0 0.00 0.00 0.00 26 1015.0
20260502031539 62 306 8.0 13.0 0.00 0.00 0.00 23 1014.7
20260502030040 62 319 9.0 13.0 0.00 0.00 0.00 21 1014.5
20260502024542 62 302 7.0 11.0 0.00 0.00 0.00 21 1014.6
20260502023039 64 266 4.0 7.0 0.00 0.00 0.00 19 1014.3
20260502021539 66 256 8.0 12.0 0.00 0.00 0.00 17 1014.2
20260502020039 68 256 6.0 10.0 0.00 0.00 0.00 16 1014.1
20260502014538 69 256 9.0 14.0 0.00 0.00 0.00 15 1014.1
20260502013052 71 253 3.0 9.0 0.00 0.00 0.00 18 1014.2
20260502011537 72 259 3.0 6.0 0.00 0.00 0.00 18 1014.2
20260502010041 72 259 2.0 8.0 0.00 0.00 0.00 18 1014.2
20260502004538 72 287 3.0 10.0 0.00 0.00 0.00 18 1014.3
20260502003039 72 316 7.0 13.0 0.00 0.00 0.00 18 1014.4
20260502001554 72 284 2.0 13.0 0.00 0.00 0.00 18 1014.5
20260502000037 72 342 1.0 14.0 0.00 0.00 0.00 18 1014.6
20260501234536 72 293 10.0 16.0 0.00 0.00 0.00 18 1014.7
20260501233049 71 346 5.0 13.0 0.00 0.00 0.00 18 1015.0